Meath Environmental Platform

Observations for Trim Market St

Time AQI Temp °C Hum % Pres Pa CO μg/m³ H₂S μg/m³ NO μg/m³ NO₂ μg/m³ O₃ μg/m³ SO₂ μg/m³ PM1 μg/m³ PM2.5 μg/m³ PM10 μg/m³
Friday 21 August 2026
12:09 2 25 40 65,487 0.02 0 1.61 15.13 71.31 0 0 2.37 2.6
12:08 2 24.9 40 65,475 0.02 0 1.62 12.64 70.23 0 0 2.36 2.59
12:06 2 24.7 40 65,441 0.11 0 1.48 14.95 70.51 0 0 2.36 2.59
12:05 2 24.6 40 65,423 0.13 0 1.62 12.47 68.61 0 0 2.88 3.17
12:04 2 24.5 40 65,396 0.04 0 1.42 14.74 73.45 0 0 2.88 3.17
12:02 2 24.3 40 65,386 0.18 0 1.25 12.17 68.69 0 0.71 2.86 3.15
12:01 2 24.2 41 65,348 0.09 0 1.26 12.38 69.34 0 0 2.33 2.56
12:00 2 24.2 41 65,297 0.04 0 1.12 13.41 77.16 0 0 2.32 2.55
11:59 2 24.1 41 65,295 0.12 0 1.15 12.16 66.43 0 0 2.31 2.73
11:54 2 23.5 41 65,224 0.01 0 1.3 10.4 69.61 0 0.71 3.36 3.69
11:53 2 23.5 41 65,211 0 0 1.32 10.67 75.04 0 0 2.31 2.54
11:50 2 23.4 41 65,238 0 0 1.35 10.86 68.83 0 0 2.31 2.54
11:48 2 23.4 41 65,209 0 0 1.23 9.5 68.62 0 0 2.3 2.53
11:40 2 23.5 42 65,201 0 0 1.71 9.7 70.04 0 0 2.27 2.5
11:39 2 23.5 42 65,207 0 0 1.71 10.84 68.76 0 0 2.27 2.49
11:38 2 23.5 42 65,184 0 0 1.54 10.46 63.65 0 0 2.25 2.48
11:37 2 23.5 43 65,151 0.29 0 1.56 14.82 68.01 0 0 2.25 2.47
11:36 2 23.4 43 65,137 0 0 1.57 13.91 65.56 0 0.71 3.29 3.62
11:35 2 23.4 43 65,123 0.23 0 1.68 19.78 65.62 0 0 2.23 2.45
11:34 2 23.3 43 65,103 0.07 0 1.73 11.44 68.13 0 0 2.22 2.44